EYESAT-1 (AO-27)

Last updated on Fri Feb 16 2018 09:48:24 GMT+0000 (Coordinated Universal Time)

1 22825U 93061C 18047.17540666 -.00000004 00000-0 16420-4 0 9995 2 22825 98.8481 21.1936 0008153 347.1041 12.9931 14.30021858272275
UTC large
Height (km)
Speed (km/s)
/
Latitude / Longitude
Inclination (degrees)
Orbital Period (minutes)
Azimuth
Elevation
Range (km)
Doppler Factor

Next 0 passes for location: London (51.5072 / 0.1276)

Sorry there are no passes over London.
EYESAT-1 (AO-27)